Погода в Сотницыне

Россия / Рязанская область     54°16′29″N   41°47′54″E
темп.,
°C
ветер,
м/с
пор.,
м/с
влажн.,
%
обл.,
%
осадки,
мм/ч
давл.,
гПа
погр.,
м
16 апреля, пт
пт1600:00+12в41161100 0.2 1015193
03:00+10в357299 0.2 101680
06:00+10всв4780100 0.0 1016137
09:00+13всв5767100 0.1 1018434
12:00+18в564893 0.0 10181005
15:00+20в6735100 0.0 10181790
18:00+17в484755 0.0 1018256
21:00+13в6146494 0.0 1019344
17 апреля, сб
сб1700:00+12в5117768 0.0 1020335
03:00+10в51184100 0.1 1020331
06:00+9всв51088100 0.1 1020322
09:00+13в7116791 0.1 1020528
12:00+17в8105094 0.0 10191032
15:00+17в694983 0.0 10181080
18:00+15всв8135988 0.4 1018926
21:00+9ююз4786100 10.1 1021388
18 апреля, вс
вс1800:00+9в2392100 2.6 1021224
03:00+9св2396100 6.9 1021164
06:00+7всв5896100 2.4 1020379
09:00+6всв5993100 3.9 1021415
12:00+6в5794100 0.3 1021410
15:00+7всв668685 0.3 1022506
18:00+7в5786100 0.0 1022583
21:00+6всв4691100 0.0 1023500
19 апреля, пн
пн1900:00+6всв3594100 0.0 1023224
03:00+6всв369497 0.0 1023226
06:00+5всв489426 0.0 1024341
09:00+8в577999 0.0 1024646
12:00+9в7878100 0.0 1024782
15:00+10в71173100 0.0 1024931
18:00+9в41278100 0.0 1024705
21:00+8в71568100 0.0 1024592
20 апреля, вт
вт2000:00+6в7147693 0.0 1023576
03:00+5в81578100 0.0 1022591
06:00+5в81679100 0.0 1021709
09:00+6вюв91779100 0.0 1019875
12:00+9вюв111872100 0.0 10171001
15:00+8вюв111975100 0.7 1015990
18:00+6вюв122290100 8.8 1013915
21:00+6вюв122389100 12.7 1012970